CZ-2C R/B

Satellite information

Favourite Embed

Satellite Type and Status

ROCKET BODYIN ORBIT

Key statistics

Satellite CZ-2C R/B at a glance.

Uptime

6822

Days in orbit

Revolutions

≈ 14.2

Per day

Orbit

SSO

Sun Synchronous Orbit

Inclination

98.4

Latest

Satellite identification and parameters

Extended collection of information and parameters for CZ-2C R/B.

Object identification

Identified? True

Debris? False

Object name: CZ-2C R/B

International designator: 2007-010B

Object number (NORAD): 31114

Object ID (CCSDS): 31114

Country: PEOPLES REPUBLIC OF CHINA (PRC)

Current information (Y/N): Y

RCS size: LARGE

Orbital parameters

Period: 101.393 minutes

Inclination: 98.3975 deg

SMA: 7202.778 km

Apoapsis: 867.149 km

Periapsis: 782.138 km

RAAN: 100.1735 deg

Eccentricy: 0.00590128

Argument of periapsis: 183.6092 deg

Mean anomaly: 176.4668 deg

Mean motion: 14.20210438 rev/day

Mean motion (dot): 0.00000242 rev/day2

B* drag term: 0.00013013239 1/REarth

Two-line elements (TLE)

Creation date: Dec. 14, 2025, 3:07 a.m.

Reference frame: TEME

Reference center: EARTH

Epoch: Dec. 13, 2025, 1:32 p.m. UTC

TLE line 0: 0 CZ-2C R/B

TLE line 1: 1 31114U 07010B 25347.56413924 .00000242 00000-0 13013-3 0 9992

TLE line 2: 2 31114 98.3975 100.1735 0059013 183.6092 176.4668 14.20210438967495

Live tracking on map

Real-time ground track for satellite CZ-2C R/B.

In-orbit conjunctions

A list of the most updated potential collisions computed for object CZ-2C R/B.

Target Orbit TCA Probability of collision Miss distance Type
CZ-6A DEB LEO 2025-07-25 16:52:45 0.0004203301 181.0 (m) DEBRIS
CZ-6A DEB SSO 2025-03-04 13:01:00 0.0002134461 278.0 (m) DEBRIS

Associated space launch

Chinese oceanography satellite

CZ-2C R/B was lifted into orbit during the mission ‘Long March 2C | Hai Yang 1B’, on board a Long March 2 space rocket.

The launch took place on April 11, 2007, 3:27 a.m. from Launch Complex 7.

For more information about the launch, click the button.

Launch to space Long March 2C | Hai Yang 1B
Long March 2C | Hai Yang 1B

Agency: N/A

Status: Launch Successful

Launch date: April 11, 2007, 3:27 a.m. UTC

Rocket: Long March 2

Launch pad: Launch Complex 7

Location: Taiyuan Satellite Launch Center, People's Republic of China

...

Latest news about this satellite

There are no fresh news available about this satellite. Check back as we update our databases every day.


Newsletter sign-up

Weekly statistics, charts and insights to help you stay on top of the space industry.